SL-8 DEB, 2334

Orbit data source: Space-Track

SL-8 DEB, 2334 is space debris in LEO originally from a launch on Mon, 15 Mar 1965 UTC launched from the Tyuratam Missile And Space Complex (TTMTR). Debris objects in space refer to the collection of defunct objects orbiting the Earth. Examples of debris include non-operational satellites, rocket bodies, and fragments generated from explosions, collisions, or faulty payload assembly.

Loading next visibility...
SL-8 DEB details
Identifier
2334, 1965-020EH
Orbit
LEO
Last TLE update1 day ago
Origin
Flag of CISRVSN (CIS)
ManufacturerUnknown
MissionSpacecraft
Bus & MotorUnknown
MassUnknown
Launch date (UTC)
1965-03-15 (60 years ago)
Launch vehicleUnknown
Launch site
Tyuratam Missile And Space Complex (TTMTR)
Object type
Payload
Rocket body
Debris
Shape & HBRUnknown
Radar Cross SectionSmall (<0.1 m²)

Expand to show TLE details & history

TLE from 1 day ago
0 SL-8 DEB
1  2334U 65020EH  24355.58880931  .00000379  00000-0  59339-3 0  9997
2  2334  55.6732 193.5274 0581944 226.0601 129.0898 13.11398462780247
Epoch: 2024-12-20T14:07Z
Definitive object data (Epoch: 2024-12-20T14:07:53.124Z)
Latitude-0.00008°
Longitude-108.09616°
Altitude1,512.186 km
Speed6.971 km/s
True Right ascension12h 54m 06s
True Declination0° 00' 00"
Sunlit
Object was in daylight at TLE epoch
Visualization TLE readout
Latitude40.45595°
Longitude33.36546°
Altitude1,267.953 km
Speed7.204 km/s
Apparent Right ascension23h 50m 36s
Apparent Declination5° 06' 04"
Sunlit
Object is in daylight
Visualization observer readout
Local Sidereal Time13:39:41
Azimuth35.649° NE
Elevation-38.462°
Doppler factor1
Orbital elements
Apogee altitude1,659.655 km
Perigee altitude775.594 km
Semi-major axis7,595.762 km
Eccentricity0.0581944
Inclination55.6732°
RAAN193.5274°
Arg. of periapsis226.0601°
True anomaly134.03222°
Mean anomaly129.0898°
Eccentric anomaly131.5838°
Mean motion3.27858 °/min
BSTAR0.00059339
Orbital period109.8 mins
Loading maneuver chart data...
Loading historical data...
Loading historical data...
Loading historical data...
Loading historical data...
Loading historical data...
Loading historical data...
Loading historical data...

SL-8 DEB Visibility forecast

Observer location: undefined°, undefined

Span
Click to sort rows by Start time (UTC) header in descending order
Start Az.
Max El. time (UTC)
Max El. Az.
Max El.
End time (UTC)
End Az.
19 mins2024-12-21 15:52:31.741Z225.152° WSW2024-12-21 16:01:31.741Z249.577° W44.796°2024-12-21 16:11:31.741Z45.991° ENE
16 mins2024-12-21 17:50:31.741Z275.296° WNW2024-12-21 17:58:31.741Z341.937° N32.63°2024-12-21 18:06:31.741Z43.212° NE
14 mins2024-12-21 19:48:31.741Z308.845° NW2024-12-21 19:55:31.741Z1.034° NNE26.424°2024-12-21 20:02:31.741Z58.355° ENE
14 mins2024-12-21 21:45:31.741Z320.914° NNW2024-12-21 21:52:31.741Z23.792° NE35.416°2024-12-21 21:59:31.741Z97.908° ESE
14 mins2024-12-21 23:40:31.741Z308.459° NW2024-12-21 23:47:31.741Z245.279° WSW41.568°2024-12-21 23:54:31.741Z153.076° SSE
14 mins2024-12-22 13:48:31.741Z166.711° S2024-12-22 13:54:31.741Z120.682° SE27.307°2024-12-22 14:02:31.741Z63.802° ENE
|